Change the Weather History Date:

Monday, October 8, 2012

  Actual Average Record
Temperature  
Mean Temperature 42 °F -  
Max Temperature 57 °F 61 °F 82 °F (1997)
Min Temperature 28 °F 41 °F 23 °F (1987)
Degree Days  
Heating Degree Days 23    
Moisture  
Dew Point 26 °F    
Average Humidity 49    
Maximum Humidity 65    
Minimum Humidity 39    
Precipitation  
Precipitation 0.00 in - - ()
Sea Level Pressure  
Sea Level Pressure 29.86 in    
Wind  
Wind Speed 10 mph (SSW)    
Max Wind Speed 23 mph    
Max Gust Speed 31 mph    
Visibility 10 miles    
Events      
Averages and records for this station are not official NWS values.
T = Trace of Precipitation, MM = Missing Value Source: NWS Daily Summary

Daily Weather History Graph

Daily Weather History Graph

Search for Another Location

Airport or City:

Trip Planner

Search our weather history database for the weather conditions in past years. The results will help you decide how hot, cold, wet, or windy it might be!

Date:

Astronomy

Oct. 08, 2012 Rise Set
Actual Time 7:05 AM CDT 6:25 PM CDT
Civil Twilight 6:36 AM CDT 6:54 PM CDT
Nautical Twilight 6:02 AM CDT 7:27 PM CDT
Astronomical Twilight 5:28 AM CDT 8:01 PM CDT
Moon No Moon Rise 2:29 PM CDT (10/8)
Length of Visible Light 12h 18m
Length of Day
11h 19m
Last Quarter, 46% of the Moon is Illuminated
Oct 8
Last Quarter
Oct 15
New
Oct 21
First Quarter
Oct 29
Full
Nov 6
Last Quarter

Hourly Weather History & Observations

Time (CDT) Temp. Windchill Dew Point Humidity Pressure Visibility Wind Dir Wind Speed Gust Speed Precip Events Conditions
12:15 AM 30.2 °F 26.7 °F 18.9 °F 63% 30.01 in 10.0 mi South 3.5 mph - N/A   Clear
12:35 AM 30.6 °F 27.1 °F 18.9 °F 62% 30.01 in 10.0 mi SSW 3.5 mph - N/A   Clear
12:55 AM 30.0 °F 25.2 °F 18.5 °F 62% 30.00 in 10.0 mi South 4.6 mph - N/A   Clear
1:15 AM 28.9 °F 22.8 °F 18.5 °F 65% 30.00 in 10.0 mi South 5.8 mph - N/A   Clear
1:35 AM 29.3 °F 23.2 °F 18.5 °F 64% 30.00 in 10.0 mi South 5.8 mph - N/A   Clear
1:55 AM 29.1 °F 23.0 °F 18.0 °F 63% 30.00 in 10.0 mi South 5.8 mph - N/A   Clear
2:15 AM 29.3 °F 23.2 °F 17.4 °F 61% 30.00 in 10.0 mi SSW 5.8 mph - N/A   Clear
2:35 AM 30.6 °F 24.7 °F 18.0 °F 60% 29.99 in 10.0 mi South 5.8 mph - N/A   Clear
2:55 AM 30.6 °F 24.7 °F 17.6 °F 59% 29.98 in 10.0 mi South 5.8 mph - N/A   Clear
3:15 AM 30.6 °F 24.7 °F 17.6 °F 59% 29.98 in 10.0 mi South 5.8 mph - N/A   Clear
3:35 AM 30.9 °F 25.2 °F 17.2 °F 57% 29.97 in 10.0 mi South 5.8 mph - N/A   Clear
3:55 AM 30.0 °F 23.2 °F 17.4 °F 59% 29.97 in 10.0 mi South 6.9 mph - N/A   Clear
4:15 AM 30.7 °F 24.9 °F 17.4 °F 58% 29.96 in 10.0 mi South 5.8 mph - N/A   Clear
4:35 AM 30.7 °F 24.9 °F 17.4 °F 58% 29.96 in 10.0 mi South 5.8 mph - N/A   Clear
4:55 AM 30.7 °F 24.9 °F 17.4 °F 58% 29.95 in 10.0 mi South 5.8 mph - N/A   Clear
5:15 AM 30.2 °F 24.3 °F 17.4 °F 59% 29.95 in 10.0 mi SSW 5.8 mph - N/A   Clear
5:35 AM 30.2 °F 24.3 °F 17.6 °F 60% 29.95 in 10.0 mi South 5.8 mph - N/A   Clear
5:55 AM 29.7 °F 23.7 °F 17.6 °F 61% 29.95 in 10.0 mi SSW 5.8 mph - N/A   Clear
6:15 AM 30.0 °F 24.1 °F 18.3 °F 62% 29.95 in 10.0 mi SSW 5.8 mph - N/A   Clear
6:35 AM 29.7 °F 22.8 °F 18.5 °F 63% 29.95 in 10.0 mi SSW 6.9 mph - N/A   Scattered Clouds
6:55 AM 31.8 °F 23.9 °F 19.4 °F 60% 29.94 in 10.0 mi South 9.2 mph - N/A   Clear
7:15 AM 33.1 °F 24.4 °F 20.1 °F 59% 29.94 in 10.0 mi South 11.5 mph - N/A   Clear
7:35 AM 34.3 °F 26.5 °F 20.3 °F 57% 29.93 in 10.0 mi South 10.4 mph - N/A   Clear
7:55 AM 35.6 °F 28.0 °F 21.0 °F 55% 29.93 in 10.0 mi South 10.4 mph - N/A   Clear
8:15 AM 37.4 °F 30.3 °F 21.9 °F 54% 29.93 in 10.0 mi South 10.4 mph - N/A   Scattered Clouds
8:35 AM 38.1 °F 29.5 °F 22.5 °F 53% 29.92 in 10.0 mi South 15.0 mph 18.4 mph N/A   Mostly Cloudy
8:55 AM 39.7 °F 33.2 °F 23.7 °F 53% 29.91 in 10.0 mi South 10.4 mph - N/A   Overcast
9:15 AM 41.5 °F 35.0 °F 24.6 °F 51% 29.91 in 10.0 mi SSW 11.5 mph 19.6 mph N/A   Overcast
9:55 AM 46.4 °F 39.5 °F 27.0 °F 47% 29.90 in 10.0 mi South 17.3 mph 25.3 mph N/A   Overcast
10:15 AM 46.9 °F - 27.7 °F 47% 29.89 in 10.0 mi SSW 19.6 mph 25.3 mph N/A   Overcast
10:35 AM 49.8 °F - 29.1 °F 45% 29.89 in 10.0 mi SSW 17.3 mph 27.6 mph N/A   Mostly Cloudy
10:55 AM 51.6 °F - 30.4 °F 44% 29.89 in 10.0 mi SSW 17.3 mph 26.5 mph N/A   Scattered Clouds
11:15 AM 52.9 °F - 30.7 °F 43% 29.88 in 10.0 mi South 21.9 mph 25.3 mph N/A   Mostly Cloudy
11:35 AM 52.3 °F - 30.9 °F 44% 29.87 in 10.0 mi SSW 18.4 mph 29.9 mph N/A   Mostly Cloudy
11:55 AM 52.9 °F - 30.9 °F 43% 29.86 in 10.0 mi SSW 23.0 mph 31.1 mph N/A   Mostly Cloudy
12:15 PM 53.6 °F - 30.9 °F 42% 29.86 in 10.0 mi SSW 23.0 mph 29.9 mph N/A   Mostly Cloudy
12:35 PM 52.7 °F - 30.6 °F 43% 29.85 in 10.0 mi SSW 20.7 mph 27.6 mph N/A   Overcast
12:55 PM 52.3 °F - 30.2 °F 43% 29.85 in 10.0 mi SSW 19.6 mph 25.3 mph N/A   Overcast
1:15 PM 52.7 °F - 30.2 °F 42% 29.84 in 10.0 mi SSW 20.7 mph 26.5 mph N/A   Overcast
1:35 PM 52.9 °F - 30.2 °F 42% 29.83 in 10.0 mi SSW 17.3 mph 21.9 mph N/A   Overcast
1:55 PM 53.6 °F - 30.7 °F 42% 29.82 in 10.0 mi SSW 17.3 mph 23.0 mph N/A   Overcast
2:15 PM 54.1 °F - 31.1 °F 41% 29.81 in 10.0 mi SSW 16.1 mph 24.2 mph N/A   Overcast
2:35 PM 54.9 °F - 31.1 °F 40% 29.80 in 10.0 mi South 21.9 mph 28.8 mph N/A   Mostly Cloudy
3:15 PM 55.4 °F - 31.1 °F 40% 29.79 in 10.0 mi South 12.7 mph 24.2 mph N/A   Overcast
3:35 PM 56.8 °F - 31.8 °F 39% 29.78 in 10.0 mi SSW 16.1 mph 25.3 mph N/A   Overcast
3:55 PM 56.3 °F - 31.6 °F 39% 29.77 in 10.0 mi South 17.3 mph 29.9 mph N/A   Overcast
4:15 PM 56.3 °F - 31.8 °F 39% 29.76 in 10.0 mi South 20.7 mph 26.5 mph N/A   Overcast
4:35 PM 56.8 °F - 32.0 °F 39% 29.75 in 10.0 mi South 16.1 mph 27.6 mph N/A   Overcast
4:55 PM 56.7 °F - 32.0 °F 39% 29.76 in 10.0 mi South 15.0 mph 24.2 mph N/A   Mostly Cloudy
5:15 PM 56.5 °F - 31.5 °F 39% 29.75 in 10.0 mi SSW 23.0 mph 28.8 mph N/A   Overcast
5:35 PM 56.5 °F - 31.6 °F 39% 29.75 in 10.0 mi SSW 17.3 mph 24.2 mph N/A   Overcast
5:55 PM 56.3 °F - 31.6 °F 39% 29.74 in 10.0 mi South 12.7 mph 23.0 mph N/A   Overcast
6:15 PM 55.8 °F - 31.6 °F 40% 29.76 in 10.0 mi South 16.1 mph 21.9 mph N/A   Overcast
6:35 PM 55.6 °F - 31.6 °F 40% 29.76 in 10.0 mi SSW 13.8 mph 25.3 mph N/A   Mostly Cloudy
6:55 PM 55.2 °F - 31.8 °F 41% 29.76 in 10.0 mi South 12.7 mph 25.3 mph N/A   Overcast
7:15 PM 54.9 °F - 31.6 °F 41% 29.75 in 10.0 mi South 20.7 mph 26.5 mph N/A   Mostly Cloudy
7:35 PM 54.9 °F - 31.5 °F 41% 29.75 in 10.0 mi South 17.3 mph 24.2 mph N/A   Mostly Cloudy
8:15 PM 54.1 °F - 31.3 °F 42% 29.75 in 10.0 mi South 17.3 mph 24.2 mph N/A   Overcast
9:15 PM 53.6 °F - 31.3 °F 43% 29.75 in 10.0 mi South 16.1 mph 24.2 mph N/A   Mostly Cloudy
9:35 PM 52.9 °F - 31.3 °F 44% 29.75 in 10.0 mi South 18.4 mph 24.2 mph N/A   Scattered Clouds
9:55 PM 52.9 °F - 31.1 °F 43% 29.75 in 10.0 mi South 18.4 mph 25.3 mph N/A   Mostly Cloudy
10:15 PM 53.1 °F - 30.9 °F 43% 29.75 in 10.0 mi SSW 19.6 mph 25.3 mph N/A   Overcast
10:35 PM 52.9 °F - 30.7 °F 43% 29.74 in 10.0 mi South 16.1 mph 26.5 mph N/A   Mostly Cloudy
10:55 PM 53.6 °F - 30.6 °F 41% 29.75 in 10.0 mi SSW 19.6 mph 26.5 mph N/A   Mostly Cloudy
11:15 PM 52.9 °F - 30.6 °F 43% 29.75 in 10.0 mi SSW 18.4 mph 26.5 mph N/A   Scattered Clouds
11:35 PM 52.7 °F - 30.6 °F 43% 29.75 in 10.0 mi SSW 12.7 mph 24.2 mph N/A   Scattered Clouds
11:55 PM 52.7 °F - 30.7 °F 43% 29.75 in 10.0 mi SSW 17.3 mph 23.0 mph N/A   Scattered Clouds